Weather in Chernokozovo

Russia / Chechen Republic     43°40′15″N   45°21′38″E
temp.,
°C
wind,
m/s
gust,
m/s
humid.,
%
clouds,
%
prec.,
mm/h
press.,
hPa
HPBL,
m
14 august, sun
sun1400:00+25e59410 0.0 1007294
03:00+23e34570 0.0 100799
06:00+23e12640 0.0 1006121
09:00+29ssw11430 0.0 1006633
12:00+35ese13270 0.0 10041229
15:00+39ese34180 0.0 10022261
18:00+36e79210 0.0 1002767
21:00+28e510390 0.0 1004406
15 august, mon
mon1500:00+26e37490 0.0 1004258
03:00+24e23650 0.0 100478
06:00+24ese23662 0.0 1005116
09:00+30e23410 0.0 1005685
12:00+39ese56160 0.0 10031775
15:00+40e109130 0.0 10012111
18:00+36e1013200 0.0 1002805
21:00+30e814310 0.0 1004538
16 august, tue
tue1600:00+28e510440 0.0 1004387
03:00+25e36570 0.0 1005161
06:00+24ssw12590 0.0 100689
09:00+31w56390 0.0 1007781
12:00+37w44260 0.0 10061378
15:00+39sw33210 0.0 10052068
18:00+38wsw12230 0.0 100653
21:00+30ese49310 0.0 1007177
17 august, wed
wed1700:00+27s11440 0.0 100820
03:00+26wnw36450 0.0 1008122
06:00+26w48500 0.0 1009252
09:00+33wnw55310 0.0 1008832
12:00+38nnw32230 0.0 10071763
15:00+40nne21200 0.0 10052731
18:00+39ne23220 0.0 1004105
21:00+32ese35300 0.0 100577
18 august, thu
thu1800:00+28ese11370 0.0 100511
03:00+27w37485 0.0 1005129
06:00+26w48500 0.0 1006243
09:00+33w55320 0.0 1006704
12:00+39ne11220 0.0 10041816
15:00+41e22200 0.0 10033107
18:00+35e810220 0.0 1004589
21:00+25e484892 0.1 1006196